Weather Roundup
Issued by NWS

Home | Current Version | Previous Version | Text Only | Print | Product List | Glossary On
Versions: 1 2 3 4 5 6 7 8 9 10 11 12 13 14 15 16 17 18 19 20 21 22 23 24 25 26 27 28 29 30 31 32 33 34 35 36 37 38 39 40 41 42 43 44 45 46 47 48 49 50
000
NZUS93 KARX 191110
HRRWXR

CURRENT HOURLY OBSERVATIONS ACROSS
MUCH OF THE UPPER MISSISSIPPI VALLEY
NATIONAL WEATHER SERVICE LA CROSSE WI
600 AM CDT THU OCT 19 2017


...SOUTHEAST MINNESOTA...


CITY           SKY/WX    TMP DP  RH WIND       PRES   REMARKS
ROCHESTER      CLOUDY    41  32  70 W5        30.08R
ROCHESTER/MAYO FAIR      46  30  54 S3        30.08R
WINONA         MOCLDY    39  34  81 CALM      30.08R
AUSTIN         CLOUDY    39  34  81 CALM      30.08R
ALBERT LEA     NOT AVBL
DODGE CENTER   CLOUDY    37  32  81 S3        30.07R
PRESTON        CLOUDY    42  30  62 CALM      30.09R
OWATONNA       CLOUDY    37  34  87 SE5       30.06F WCI  34
FARIBAULT      CLOUDY    36  34  93 CALM      30.06S
$$

...ELSEWHERE IN MINNESOTA...


CITY           SKY/WX    TMP DP  RH WIND       PRES   REMARKS
MINNEAPOLIS    CLOUDY    46  33  60 CALM      30.05R
INTNL FALLS    PTCLDY    40  21  46 W7        29.86R
DULUTH         PTCLDY    41  26  55 W12       29.93S
RED WING       CLOUDY    37  32  81 CALM      30.05S
REDWOOD FALLS  CLOUDY    37  32  82 S8        30.03R WCI  31
MANKATO        CLOUDY    41  34  76 SE7       30.05S
WORTHINGTON    CLOUDY    44  31  60 S8        30.06R
FAIRMONT       CLOUDY    37  33  85 SW5       30.07R WCI  33
$$

...SOUTHWEST WISCONSIN...


CITY           SKY/WX    TMP DP  RH WIND       PRES   REMARKS
LA CROSSE      CLOUDY    46  37  71 S7        30.07R
PRAIRIE DU CHI CLOUDY    41  35  79 E3        30.10R
BOSCOBEL       CLOUDY    40  38  93 CALM      30.11R FOG
LONE ROCK      PTCLDY    40  38  93 CALM      30.10R
PLATTEVILLE    CLOUDY    48  39  71 CALM      30.10R
FORT MC COY    CLOUDY    34  32  92 CALM      30.08R
CAMP DOUGLAS   CLOUDY    38  32  79 CALM      30.06R
MAUSTON-NEW LI CLOUDY    43  34  71 CALM      30.06R
VIROQUA        FAIR      48  29  46 CALM      30.09R
WIS DELLS      CLOUDY    44  31  60 SW3       30.08R
$$

...ELSEWHERE IN WISCONSIN...


CITY           SKY/WX    TMP DP  RH WIND       PRES   REMARKS
MILWAUKEE      CLOUDY    55  28  35 NW6       30.07R
MADISON        MOCLDY    44  37  76 CALM      30.09R
GREEN BAY      CLOUDY    48  31  51 SW6       30.03R
EAU CLAIRE     CLOUDY    39  30  70 CALM      30.04R
BLACK RVR FLS  FAIR      32  30  94 CALM      30.06R
MEDFORD        CLOUDY    39  27  62 SW3       30.02R
WAUSAU         PTCLDY    45  28  51 NW6       30.01R
WIS RAPIDS     CLOUDY    44  28  53 W5        30.06R
MARSHFIELD     CLOUDY    41  27  57 W7        30.03R
RICE LAKE      CLOUDY    35  31  87 CALM      30.05R
$$

...NORTHEAST IOWA...


CITY           SKY/WX    TMP DP  RH WIND       PRES   REMARKS
WATERLOO       CLOUDY    39  37  92 CALM      30.09R
DUBUQUE        CLOUDY    46  35  65 N6        30.10R
DECORAH        CLOUDY    45  28  53 CALM      30.09R
MASON CITY     CLOUDY    36  32  85 CALM      30.11R
CHARLES CITY   CLOUDY    39  36  87 CALM      30.10R
OELWEIN        CLOUDY    46  30  53 E5        30.10R
$$

...ELSEWHERE IN IOWA...


CITY           SKY/WX    TMP DP  RH WIND       PRES   REMARKS
DES MOINES     CLEAR     53  40  61 E6        30.09R
IOWA CITY      CLOUDY    46  44  93 CALM      30.12R
FORT DODGE     CLOUDY    39  35  86 CALM      30.09S
MARSHALLTOWN   CLOUDY    41  38  89 SE3       30.10R
CEDAR RAPIDS   CLOUDY    49  38  65 NE8       30.10R
$$

...NORTHERN ILLINOIS...


CITY           SKY/WX    TMP DP  RH WIND       PRES   REMARKS
CHICAGO-OHARE  PTCLDY    53  46  77 W6        30.08R
CHICAGO-MIDWAY CLOUDY    54  48  80 W8        30.09R
MOLINE         CLEAR     46  44  93 CALM      30.10R
ROCKFORD       CLOUDY    47  43  86 CALM      30.12R
PEORIA         CLEAR     51  48  89 S3        30.12R
$$

NOTE: "FAIR" INDICATES FEW OR NO CLOUDS BELOW 12,000 FEET WITH NO
SIGNIFICANT WEATHER AND/OR OBSTRUCTIONS TO VISIBILITY. WIND
SPEEDS ARE IN MILES-PER-HOUR.




USA.gov is the U.S. government's official web portal to all federal, state and local government web resources and services.